Location: Unspecified
(0.0000°N, 0.0000°E)
Time: 14:30:19
(UTC+00:00)

deb Transtage 4 - Visible Passes

Search period start: 15 June 2025 00:00
Search period end: 25 June 2025 00:00
Orbit: 679 x 936 km, 32.2° (Epoch: 14 June)

Date Brightness Start Highest point End Pass type
(mag) Time Alt. Az. Time Alt. Az. Time Alt. Az.
15 Jun ? 18:45:30 10° NNW 18:50:54 29° NNE 18:55:37 13° E visible
15 Jun ? 20:32:01 10° WNW 20:36:36 47° W 20:36:36 47° W visible
16 Jun ? 18:17:27 10° NNW 18:22:47 28° NNE 18:28:08 10° E visible
16 Jun ? 20:03:53 10° WNW 20:10:15 69° SW 20:10:18 69° SSW visible
17 Jun ? 19:35:45 10° WNW 19:42:06 72° SW 19:44:03 46° SE visible
18 Jun ? 19:07:38 10° WNW 19:13:58 74° SW 19:17:48 26° SE visible
18 Jun ? 20:57:28 10° WSW 20:58:47 14° WSW 20:58:47 14° WSW visible
19 Jun ? 18:39:32 10° WNW 18:45:50 76° SW 18:51:33 13° SE visible
19 Jun ? 20:29:12 10° WSW 20:32:33 18° SW 20:32:33 18° SW visible
20 Jun ? 05:33:47 10° SW 05:38:39 44° SSE 05:43:19 10° ENE visible
20 Jun ? 20:00:58 10° WSW 20:05:19 19° SSW 20:06:18 18° SSW visible
21 Jun ? 05:06:23 13° SW 05:10:41 43° SSE 05:15:22 10° ENE visible
21 Jun ? 19:32:45 10° WSW 19:37:10 19° SSW 19:40:03 15° S visible
22 Jun ? 04:40:10 25° SSW 04:42:41 42° SSE 04:47:24 10° ENE visible
22 Jun ? 19:04:34 10° WSW 19:09:02 20° SSW 19:13:34 10° SSE visible
23 Jun ? 04:13:56 38° S 04:14:41 41° SSE 04:19:26 10° ENE visible
23 Jun ? 18:36:24 10° WSW 18:40:54 20° SSW 18:45:29 10° SSE visible
24 Jun ? 03:47:41 36° ESE 03:47:41 36° ESE 03:51:28 10° ENE visible
24 Jun ? 05:29:01 10° W 05:33:44 34° NW 05:38:15 10° NNE visible
